EW9372 Weather Reports


Display with metric or nautical units.
time (UTC)temp
F
wind
direction
speed
MPH
gust
MPH
rain 1hr
in
rain 24hr
in
rain mn
in
humidity
%
barometer
mb
20260903010816 78 232 4.0 11.0 0.00 0.00 0.00 47 1014.0
20260903010313 78 240 2.0 7.0 0.00 0.00 0.00 47 1014.0
20260903005812 78 213 3.0 1.0 0.00 0.00 0.00 47 1014.0
20260903004710 77 221 3.0 7.0 0.00 0.00 0.00 48 1014.0
20260903004205 77 214 3.0 0.0 0.00 0.00 0.00 48 1014.0
20260903002929 79 234 3.0 10.0 0.00 0.00 0.00 47 1014.2
20260903002924 78 250 5.0 12.0 0.00 0.00 0.00 47 1014.2
20260903000946 78 248 5.0 0.0 0.00 0.00 0.00 46 1014.4
20260903000046 79 244 4.0 7.0 0.00 0.00 0.00 46 1014.4
20260902234722 79 232 6.0 13.0 0.00 0.00 0.00 47 1014.5
20260902233720 79 217 6.0 6.0 0.00 0.00 0.00 47 1014.4
20260902232429 79 216 4.0 7.0 0.00 0.00 0.00 47 1014.5
20260902231619 79 228 5.0 1.0 0.00 0.00 0.00 48 1014.4
20260902225748 78 9 2.0 5.0 0.00 0.00 0.00 47 1014.6
20260902225249 78 244 4.0 3.0 0.00 0.00 0.00 47 1014.8
20260902224143 79 243 3.0 11.0 0.00 0.00 0.00 46 1015.0
20260902222946 79 234 2.0 11.0 0.00 0.00 0.00 46 1014.9
20260902222443 79 230 3.0 7.0 0.00 0.00 0.00 45 1014.9
20260902221944 80 244 3.0 1.0 0.00 0.00 0.00 44 1015.1
20260902220819 80 13 1.0 5.0 0.00 0.00 0.00 46 1015.1
20260902220314 80 292 3.0 1.0 0.00 0.00 0.00 44 1015.1
20260902214902 80 230 3.0 3.0 0.00 0.00 0.00 45 1015.3
20260902214104 77 239 3.0 7.0 0.00 0.00 0.00 50 1015.3
20260902213100 77 242 3.0 4.0 0.00 0.00 0.00 50 1015.3
20260902211556 76 244 4.0 9.0 0.00 0.00 0.00 50 1015.3
20260902211050 77 223 3.0 6.0 0.00 0.00 0.00 51 1015.4
20260902205717 76 243 5.0 12.0 0.00 0.00 0.00 52 1015.5
20260902205216 78 241 4.0 11.0 0.00 0.00 0.00 50 1015.6
20260902204722 77 229 2.0 5.0 0.00 0.00 0.00 52 1015.6
20260902203331 76 236 3.0 6.0 0.00 0.00 0.00 53 1015.8
20260902203327 76 239 3.0 10.0 0.00 0.00 0.00 51 1015.8
20260902201418 74 239 2.0 10.0 0.00 0.00 0.00 56 1015.8
20260902200916 74 234 2.0 10.0 0.00 0.00 0.00 56 1015.8
20260902200417 74 238 1.0 6.0 0.00 0.00 0.00 55 1016.0
20260902195917 74 238 2.0 1.0 0.00 0.00 0.00 56 1016.1
20260902195301 74 242 1.0 4.0 0.00 0.00 0.00 56 1016.1
20260902194255 74 243 2.0 0.0 0.00 0.00 0.00 55 1016.1
20260902193053 73 232 1.0 4.0 0.00 0.00 0.00 56 1016.3
20260902192549 73 232 1.0 4.0 0.00 0.00 0.00 57 1016.5
20260902191407 72 237 2.0 6.0 0.00 0.00 0.00 58 1016.6
20260902190908 72 246 1.0 3.0 0.00 0.00 0.00 58 1016.7
20260902190355 73 242 2.0 0.0 0.00 0.00 0.00 58 1016.7
20260902185120 72 232 2.0 3.0 0.00 0.00 0.00 59 1016.6
20260902183806 72 233 1.0 5.0 0.00 0.00 0.00 59 1016.6
20260902183801 73 218 1.0 3.0 0.00 0.00 0.00 58 1016.6
20260902182801 72 234 2.0 6.0 0.00 0.00 0.00 58 1016.6
20260902182300 73 232 2.0 6.0 0.00 0.00 0.00 57 1016.6
20260902181801 73 243 3.0 3.0 0.00 0.00 0.00 58 1016.7
20260902180453 72 250 2.0 8.0 0.00 0.00 0.00 59 1016.6
20260902175958 72 134 0.0 2.0 0.00 0.00 0.00 59 1016.7
20260902175953 72 238 1.0 6.0 0.00 0.00 0.00 60 1016.7
20260902174946 72 13 1.0 1.0 0.00 0.00 0.00 60 1016.8
20260902173716 71 221 2.0 6.0 0.00 0.00 0.00 62 1016.7
20260902173214 71 257 1.0 3.0 0.00 0.00 0.00 62 1016.6
20260902172015 70 254 3.0 1.0 0.00 0.00 0.00 62 1016.5
20260902170931 71 215 2.0 6.0 0.00 0.00 0.00 62 1016.4
20260902170426 70 227 2.0 6.0 0.00 0.00 0.00 63 1016.4
20260902165925 69 250 1.0 5.0 0.00 0.00 0.00 64 1016.4
20260902165426 69 238 1.0 5.0 0.00 0.00 0.00 65 1016.3
20260902165420 69 217 1.0 5.0 0.00 0.00 0.00 63 1016.3
20260902164417 69 222 1.0 4.0 0.00 0.00 0.00 66 1016.3
20260902163914 68 201 2.0 0.0 0.00 0.00 0.00 66 1016.2
20260902162532 67 217 2.0 7.0 0.00 0.00 0.00 68 1016.0
20260902162012 67 242 2.0 7.0 0.00 0.00 0.00 68 1015.9
20260902162007 67 232 2.0 1.0 0.00 0.00 0.00 69 1016.0
20260902160239 67 212 0.0 4.0 0.00 0.00 0.00 67 1016.1
20260902155730 68 146 0.0 3.0 0.00 0.00 0.00 66 1016.1
20260902155233 65 167 1.0 1.0 0.00 0.00 0.00 69 1016.0
20260902155229 67 123 1.0 3.0 0.00 0.00 0.00 67 1016.1
20260902154246 62 203 0.0 2.0 0.00 0.00 0.00 75 1015.9
20260902153234 62 204 0.0 2.0 0.00 0.00 0.00 75 1015.9
20260902152226 61 222 0.0 0.0 0.00 0.00 0.00 76 1015.7
20260902152222 61 219 0.0 0.0 0.00 0.00 0.00 77 1015.7
20260902150418 60 165 0.0 0.0 0.00 0.00 0.00 77 1015.7
20260902144950 60 163 0.0 1.0 0.00 0.00 0.00 78 1015.6
20260902144455 60 161 0.0 2.0 0.00 0.00 0.00 79 1015.4
20260902144450 60 161 0.0 2.0 0.00 0.00 0.00 79 1015.6
20260902143430 60 148 0.0 0.0 0.00 0.00 0.00 79 1015.3
20260902142247 60 137 0.0 1.0 0.00 0.00 0.00 79 1015.3
20260902141737 60 140 0.0 1.0 0.00 0.00 0.00 80 1015.4
20260902141215 59 140 0.0 0.0 0.00 0.00 0.00 80 1015.5
20260902140034 59 152 0.0 1.0 0.00 0.00 0.00 80 1015.5
20260902135515 59 153 0.0 2.0 0.00 0.00 0.00 80 1015.3
20260902134954 59 161 0.0 2.0 0.00 0.00 0.00 80 1015.3
20260902134450 59 167 0.0 1.0 0.00 0.00 0.00 81 1015.2
20260902133953 59 167 0.0 1.0 0.00 0.00 0.00 81 1015.0
20260902133441 59 171 0.0 1.0 0.00 0.00 0.00 81 1015.0
20260902132937 59 177 0.0 0.0 0.00 0.00 0.00 81 1014.9
20260902131505 59 173 0.0 1.0 0.00 0.00 0.00 81 1014.9
20260902130948 59 173 0.0 1.0 0.00 0.00 0.00 81 1014.9
20260902130437 59 175 0.0 0.0 0.00 0.00 0.00 81 1014.9
20260902125748 60 182 0.0 0.0 0.00 0.00 0.00 81 1014.8
20260902125452 59 182 0.0 0.0 0.00 0.00 0.00 81 1014.8
20260902123335 60 182 0.0 0.0 0.00 0.00 0.00 81 1014.9
20260902122249 60 182 0.0 2.0 0.00 0.00 0.00 81 1014.8
20260902121741 60 176 0.0 2.0 0.00 0.00 0.00 81 1014.7
20260902121235 60 188 0.0 2.0 0.00 0.00 0.00 81 1014.7
20260902120658 60 184 1.0 0.0 0.00 0.00 0.00 81 1014.7
20260902115411 60 157 0.0 0.0 0.00 0.00 0.00 80 1014.9
20260902115405 60 166 1.0 4.0 0.00 0.00 0.00 81 1014.8
20260902113445 60 184 1.0 4.0 0.00 0.00 0.00 80 1014.6
20260902113441 60 182 0.0 3.0 0.00 0.00 0.00 80 1014.7
20260902112422 60 175 1.0 4.0 0.00 0.00 0.00 80 1014.5
20260902111923 60 169 1.0 1.0 0.00 0.00 0.00 80 1014.5
20260902110656 60 184 1.0 2.0 0.00 0.00 0.00 79 1014.6
20260902110645 60 176 1.0 3.0 0.00 0.00 0.00 79 1014.5
20260902104648 60 204 1.0 4.0 0.00 0.00 0.00 78 1014.7
20260902104143 60 197 1.0 1.0 0.00 0.00 0.00 78 1014.7
20260902102837 60 159 0.0 0.0 0.00 0.00 0.00 78 1014.8
20260902101613 60 194 1.0 4.0 0.00 0.00 0.00 77 1014.8
20260902101118 60 206 2.0 1.0 0.00 0.00 0.00 77 1014.9
20260902100100 60 203 2.0 7.0 0.00 0.00 0.00 77 1014.9
20260902095058 60 211 1.0 7.0 0.00 0.00 0.00 77 1015.0
20260902094559 60 175 1.0 3.0 0.00 0.00 0.00 77 1015.0
20260902094059 60 184 1.0 1.0 0.00 0.00 0.00 77 1015.0
20260902092935 60 168 1.0 0.0 0.00 0.00 0.00 77 1015.0
20260902092930 60 165 1.0 5.0 0.00 0.00 0.00 77 1015.0
20260902091631 60 181 1.0 5.0 0.00 0.00 0.00 77 1014.9
20260902091339 60 176 0.0 3.0 0.00 0.00 0.00 77 1014.9
20260902090129 60 182 1.0 5.0 0.00 0.00 0.00 77 1014.8
20260902085621 60 153 1.0 5.0 0.00 0.00 0.00 77 1014.7
20260902085121 60 160 1.0 2.0 0.00 0.00 0.00 77 1014.8
20260902083633 60 180 1.0 4.0 0.00 0.00 0.00 77 1014.9
20260902083127 60 178 1.0 3.0 0.00 0.00 0.00 77 1014.9
20260902083123 60 171 1.0 4.0 0.00 0.00 0.00 77 1014.9
20260902081310 60 184 1.0 1.0 0.00 0.00 0.00 76 1014.9
20260902075749 60 146 2.0 7.0 0.00 0.00 0.00 76 1014.7
20260902075255 60 198 3.0 3.0 0.00 0.00 0.00 76 1014.7
20260902075249 60 205 2.0 6.0 0.00 0.00 0.00 76 1014.8
20260902073554 61 201 2.0 6.0 0.00 0.00 0.00 76 1014.3
20260902073053 61 178 2.0 1.0 0.00 0.00 0.00 76 1014.4
20260902072251 61 182 1.0 3.0 0.00 0.00 0.00 76 1014.5
20260902070622 61 153 2.0 3.0 0.00 0.00 0.00 75 1014.5
20260902070617 61 172 2.0 6.0 0.00 0.00 0.00 75 1014.4
20260902070112 61 197 1.0 6.0 0.00 0.00 0.00 75 1014.6
20260902064218 61 157 2.0 0.0 0.00 0.00 0.00 74 1014.5
20260902062827 61 180 2.0 2.0 0.00 0.00 0.00 72 1014.9
20260902061934 61 192 2.0 5.0 0.00 0.00 0.00 71 1014.7
20260902061706 61 207 2.0 0.0 0.00 0.00 0.00 71 1014.7
20260902055449 62 185 1.0 3.0 0.00 0.00 0.00 70 1014.8
20260902054001 62 206 2.0 4.0 0.00 0.00 0.00 69 1014.7
20260902053446 62 201 2.0 3.0 0.00 0.00 0.00 68 1014.9
20260902052632 63 222 1.0 4.0 0.00 0.00 0.00 68 1014.7
20260902050954 63 177 1.0 3.0 0.00 0.00 0.00 67 1014.8
20260902050451 64 213 1.0 4.0 0.00 0.00 0.00 66 1014.7
20260902045946 64 213 2.0 4.0 0.00 0.00 0.00 66 1014.8
20260902045443 64 213 2.0 4.0 0.00 0.00 0.00 66 1014.7
20260902044941 64 227 2.0 4.0 0.00 0.00 0.00 65 1014.7
20260902044441 64 238 2.0 2.0 0.00 0.00 0.00 65 1014.8
20260902043132 65 237 2.0 3.0 0.00 0.00 0.00 64 1014.5
20260902042334 65 227 4.0 11.0 0.00 0.00 0.00 63 1014.6
20260902041826 65 236 4.0 11.0 0.00 0.00 0.00 62 1014.5
20260902040828 65 229 5.0 4.0 0.00 0.00 0.00 62 1014.3
20260902040822 65 243 5.0 10.0 0.00 0.00 0.00 62 1014.6
20260902035001 66 239 4.0 9.0 0.00 0.00 0.00 60 1014.0
20260902034500 66 250 4.0 9.0 0.00 0.00 0.00 59 1013.9
20260902034006 67 236 5.0 4.0 0.00 0.00 0.00 59 1013.9
20260902032515 67 232 5.0 7.0 0.00 0.00 0.00 57 1013.6
20260902031655 68 245 4.0 4.0 0.00 0.00 0.00 55 1013.5
20260902030055 68 225 4.0 5.0 0.00 0.00 0.00 53 1013.3
20260902030049 68 244 5.0 13.0 0.00 0.00 0.00 53 1013.4
20260902024336 69 240 5.0 2.0 0.00 0.00 0.00 52 1013.1
20260902023453 69 248 6.0 4.0 0.00 0.00 0.00 51 1012.9
20260902021859 70 257 6.0 12.0 0.00 0.00 0.00 50 1012.8
20260902021854 70 224 6.0 15.0 0.00 0.00 0.00 50 1012.8
20260902020900 71 251 6.0 12.0 0.00 0.00 0.00 50 1012.9
20260902020058 72 250 5.0 12.0 0.00 0.00 0.00 48 1012.8
20260902015547 72 229 5.0 3.0 0.00 0.00 0.00 48 1012.8
20260902013713 74 212 7.0 4.0 0.00 0.00 0.00 45 1012.7
20260902012442 75 236 4.0 6.0 0.00 0.00 0.00 43 1012.7